"Pseudo-MPEC" for C06WUW2

Created 2019 Feb 13 5:18:32 UT using Find_Orb

Click here for an explanation of pseudo-MPECs

 
 Astrometry: 
     C06WUW2  C2019 02 11.30301 09 44 23.69 +10 41 50.2    ~2B8X 21.3 GVNEOCPG96
     C06WUW2  C2019 02 11.30862 09 44 21.20 +10 40 57.2    ~2B8X 20.8 GVNEOCPG96
     C06WUW2  C2019 02 11.31424 09 44 18.75 +10 40 05.0    ~2B8X 21.1 GVNEOCPG96
     C06WUW2  C2019 02 11.31987 09 44 16.29 +10 39 12.1    ~2B8X 20.9 GVNEOCPG96
     C06WUW2  C2019 02 11bc+T39H3$N_jK(`yK.vAstrometry5ij'-OCQ6O9mxTZkVnJ^-:cV06
     C06WUW2  C2019 02 11fT!V5.`Xredacted;9v.,vU+*jP;8yy:c5.g%(EE\!Lb;*!8l-hlV06
     C06WUW2  C2019 02 11g]8*Mq,(Q?p,kXHOY:BA(D3Ujclick0CN.11;^Tgj])uVT(!2*PFV06
     C06WUW2  C2019 02 11\:?%h'j'here`8[M]r0X(d`)QD4Qh:ro1Z+%S0nZUHa;`ChCoRVxV06
     C06WUW2  C2019 02 12.20049 09 38 14.70 +08 20 21.8    ~2C5X 19.7 GVNEOCPI52
     C06WUW2  C2019 02 12.20382 09 38 13.23 +08 19 50.5    ~2C5X 20.4 GVNEOCPI52
     C06WUW2  C2019 02 12.20714 09 38 11.75 +08 19 19.3    ~2C5X 19.8 GVNEOCPI52
     C06WUW2  C2019 02 12.21047 09 38 10.37 +08 18 47.3    ~2C5X 19.8 GVNEOCPI52
     C06WUW2 IC2019 02 12y)0KRu_]9HHs#p[1X`T'8d%for/[a1vVd%@i2;Ooph=;@iv8.R.6L01
     C06WUW2 KC2019 02 12@Pg*/-tu#Ikskbk,)Z]u4ENw[MpQ[$a!.N,q\m_)^2tFW)l=Yca#L01
     C06WUW2 pC2019 02 127q_?#W!]J:fbL`b*@lv8KV!2Zy-Oo9@fx_Cexplanation/;3UFuL01

Station data:
(G96) Mt. Lemmon Survey  (N32.442754 W110.788720)  US/Arizona.  Observers B.
   M. Africano, E. J. Christensen, G. A. Farneth, D. C. Fuls, A. R. Gibbs, A.
   D. Grauer, H. Groeller, J. A. Johnson, R. A. Kowalski, S. M. Larson, G. J.
   Leonard, R. L. Seaman, F. C. Shelly. 1.5-m reflector + 10K CCD.
(I52) Steward Observatory, Mt. Lemmon Station  (N32.442547 W110.788920)
   US/Arizona.  Observers B. M. Africano, E. J. Christensen, G. A. Farneth,
   D. C. Fuls, A. R. Gibbs, A. D. Grauer, H. Groeller, J. A. Johnson, R. A.
   Kowalski, S. M. Larson, G. J. Leonard, R. L. Seaman, F. C. Shelly. 1.0-m
   reflector + CCD.
(L01) Višnjan Observatory, Tičan  (N45.290900 E13.749300)  Croatia.
   Observers K. Korlević, E. Pettarin. Measurer E. Pettarin. 1.0-m f/2.9
   reflector + CCD.
(V06) Catalina Sky Survey-Kuiper  (N32.416847 W110.732550)  US/Arizona.
   Observers B. M. Africano, E. J. Christensen, G. A. Farneth, D. C. Fuls, A.
   R. Gibbs, A. D. Grauer, H. Groeller, J. A. Johnson, R. A. Kowalski, S. M.
   Larson, G. J. Leonard, R. L. Seaman, F. C. Shelly. 1.55-m reflector + CCD.

Orbital elements:  C06WUW2
   Perihelion 2019 Feb 26.070141 +/- 0.215 TT =  1:41:00 (JD 2458540.570141)
Epoch 2019 Feb 12.0 TT = JDT 2458526.5   Earth MOID: 0.1345   Ma: 0.0350
M 350.37562086 +/- 0.16             (J2000 ecliptic)          AutoNEOCP
n   0.68402864 +/- 0.00399          Peri.  193.81533 +/- 0.19
a   1.27571361 +/- 0.00496          Node   321.60932 +/- 0.0037
e   0.1233738 +/- 0.00257           Incl.   24.42589 +/- 0.19
P   1.44/526.28d           H 24.8   G  0.15   U  9.0  
q 1.11832394 +/- 0.00106    Q 1.43310329 +/- 0.0088
From 15 observations 2019 Feb. 11-12 (38.8 hr); mean residual 0".30
Residuals in arcseconds: 
190211 G96  .12+  .35-    190211 V06  .12+  .03-    190212 I52  .74-  .23+    
190211 G96  .28-  .51-    190211 V06  .11+  .14-    190212 I52  .01+  .32-    
190211 G96  .02-  .25+    190211 V06  .03+  .24+    190212 L01  .47-  .30-    
190211 G96  .15+  .41+    190212 I52  .69+  .07-    190212 L01  .03-  .04+    
190211 V06  .24-  .19+    190212 I52  .07+  .07+    190212 L01  .48+  .29+    

Ephemerides (geocentric):
Date (UTC) HH   RA              Dec         delta   r     elong  mag " sig PA
---- -- -- --  -------------   -----------  ------ ------ -----  --- ---- ---
2019 02 13 05  09 31 20.828   +05 41 45.96  .13480 1.1207 171.5 21.2 .539 164
2019 02 13 06  09 31 03.964   +05 35 12.13  .13482 1.1207 171.3 21.2 .560 165
2019 02 13 07  09 30 47.111   +05 28 38.41  .13483 1.1207 171.2 21.2 .582 166
2019 02 13 08  09 30 30.271   +05 22 04.81  .13485 1.1207 171.1 21.2 .605 168
2019 02 13 09  09 30 13.443   +05 15 31.33  .13487 1.1207 170.9 21.3 .629 169
2019 02 13 10  09 29 56.627   +05 08 57.97  .13489 1.1207 170.8 21.3 .653 170
2019 02 13 11  09 29 39.824   +05 02 24.75  .13492 1.1206 170.7 21.3 .679 171
2019 02 13 12  09 29 23.033   +04 55 51.67  .13494 1.1206 170.5 21.3 .706 172
2019 02 13 13  09 29 06.256   +04 49 18.73  .13496 1.1206 170.4 21.3 .733 174
2019 02 13 14  09 28 49.491   +04 42 45.95  .13499 1.1206 170.3 21.3 .762 175
2019 02 13 15  09 28 32.739   +04 36 13.32  .13501 1.1206 170.1 21.3 .792 176
2019 02 13 16  09 28 16.000   +04 29 40.85  .13504 1.1206 170.0 21.3 .822 177
2019 02 13 17  09 27 59.274   +04 23 08.54  .13506 1.1205 169.9 21.3 .854 178
2019 02 13 18  09 27 42.561   +04 16 36.41  .13509 1.1205 169.7 21.3 .886 179
2019 02 13 19  09 27 25.862   +04 10 04.46  .13512 1.1205 169.6 21.3 .919 179
2019 02 13 20  09 27 09.176   +04 03 32.69  .13515 1.1205 169.5 21.3 .954   0
2019 02 13 21  09 26 52.504   +03 57 01.11  .13518 1.1205 169.3 21.3 .989   1
2019 02 13 22  09 26 35.845   +03 50 29.72  .13521 1.1205 169.2 21.3 1.03   2
2019 02 13 23  09 26 19.200   +03 43 58.54  .13524 1.1205 169.1 21.3 1.06   3
2019 02 14 00  09 26 02.568   +03 37 27.55  .13527 1.1204 168.9 21.3 1.10   3
2019 02 14 01  09 25 45.951   +03 30 56.78  .13531 1.1204 168.8 21.3 1.14   4
2019 02 14 02  09 25 29.347   +03 24 26.23  .13534 1.1204 168.6 21.3 1.18   5
2019 02 14 03  09 25 12.758   +03 17 55.90  .13537 1.1204 168.5 21.3 1.22   5
2019 02 14 04  09 24 56.182   +03 11 25.79  .13541 1.1204 168.4 21.4 1.26   6
2019 02 14 05  09 24 39.621   +03 04 55.92  .13545 1.1204 168.2 21.4 1.31   7
2019 02 14 06  09 24 23.074   +02 58 26.29  .13548 1.1204 168.1 21.4 1.35   7
2019 02 14 07  09 24 06.542   +02 51 56.89  .13552 1.1203 168.0 21.4 1.40   8
2019 02 14 08  09 23 50.024   +02 45 27.75  .13556 1.1203 167.8 21.4 1.44   8
2019 02 14 09  09 23 33.521   +02 38 58.86  .13560 1.1203 167.7 21.4 1.49   9
2019 02 14 10  09 23 17.032   +02 32 30.23  .13564 1.1203 167.6 21.4 1.54  10
2019 02 14 11  09 23 00.558   +02 26 01.86  .13568 1.1203 167.4 21.4 1.59  10
2019 02 14 12  09 22 44.099   +02 19 33.76  .13572 1.1203 167.3 21.4 1.64  11
2019 02 14 13  09 22 27.655   +02 13 05.94  .13576 1.1203 167.1 21.4 1.69  11
2019 02 14 14  09 22 11.226   +02 06 38.40  .13581 1.1202 167.0 21.4 1.74  11
2019 02 14 15  09 21 54.811   +02 00 11.14  .13585 1.1202 166.9 21.4 1.79  12
2019 02 14 16  09 21 38.413   +01 53 44.17  .13590 1.1202 166.7 21.4 1.84  12
2019 02 14 17  09 21 22.029   +01 47 17.50  .13594 1.1202 166.6 21.4 1.90  13
2019 02 14 18  09 21 05.661   +01 40 51.13  .13599 1.1202 166.5 21.4 1.95  13
2019 02 14 19  09 20 49.308   +01 34 25.06  .13604 1.1202 166.3 21.4 2.01  13
2019 02 14 20  09 20 32.971   +01 27 59.31  .13608 1.1202 166.2 21.4 2.07  14
2019 02 14 21  09 20 16.649   +01 21 33.87  .13613 1.1201 166.0 21.4 2.12  14
2019 02 14 22  09 20 00.343   +01 15 08.74  .13618 1.1201 165.9 21.4 2.18  15
2019 02 14 23  09 19 44.053   +01 08 43.95  .13623 1.1201 165.8 21.5 2.24  15
2019 02 15 00  09 19 27.779   +01 02 19.48  .13628 1.1201 165.6 21.5 2.30  15
2019 02 15 01  09 19 11.520   +00 55 55.35  .13633 1.1201 165.5 21.5 2.37  16
2019 02 15 02  09 18 55.278   +00 49 31.57  .13639 1.1201 165.4 21.5 2.43  16
2019 02 15 03  09 18 39.051   +00 43 08.12  .13644 1.1201 165.2 21.5 2.49  16
2019 02 15 04  09 18 22.841   +00 36 45.03  .13649 1.1201 165.1 21.5 2.56  16